Location: Mudri�n
(41.2236°N, 4.3320°W)
Time: 11:41:56
(UTC+00:00)

Daily predictions for brighter satellites

Satellite Brightness Start Highest point End
(mag) Time Altitude Azimuth Time Altitude Azimuth Time Altitude Azimuth
Cosmos 2034 Rocket 4.2 19:23:36 10° S 19:29:49 81° W 19:36:09 10° N
ATLAS 3B R/B 3.1 19:23:54 10° NNW 19:30:51 58° NE 19:38:05 10° SE
SAR-Lupe-1 4.0 19:31:52 10° NNE 19:35:28 87° ESE 19:39:02 10° SSW
Cosmos 1726 Rocket 3.8 19:31:20 10° SSW 19:35:42 74° W 19:40:03 10° N
SL-16 R/B 4.3 19:37:17 10° NNE 19:38:59 11° NE 19:40:42 10° ENE
Cosmos 2360 Rocket 3.7 19:34:26 10° NW 19:39:35 37° WSW 19:44:42 10° S
Cosmos 2026 Rocket 4.2 19:34:37 10° N 19:40:34 53° ENE 19:46:33 10° SSE
FALCON 9 DEB 3.6 19:38:50 10° SSW 19:41:37 32° SE 19:44:24 10° ENE
SME Rocket 3.5 19:38:08 10° NNE 19:42:17 88° WNW 19:48:00 10° SSW
Cosmos 1455 2.1 19:41:26 10° S 19:45:10 80° E 19:48:55 10° N
Cosmos 1992 Rocket 4.0 19:40:05 10° NNW 19:45:19 84° ENE 19:50:32 10° SSE
Meteor 2-10 Rocket 4.0 19:40:29 10° SSW 19:45:42 70° W 19:51:13 10° N
COSMOS 2455 4.3 19:42:45 10° SE 19:45:50 14° ESE 19:48:56 10° ENE
SL-4 R/B 2.5 19:44:23 10° SSW 19:48:21 42° SE 19:52:39 10° ENE
CZ-4 R/B 4.0 19:48:55 10° SSW 19:52:20 24° W 19:55:45 10° NW
BREEZE M DEB (TANK) 4.3 19:49:56 10° S 19:52:26 21° ESE 19:57:02 10° ENE
USA 186 1.7 19:49:12 10° SSE 19:52:30 76° ENE 19:55:39 10° N
BREEZE-M DEB (TANK) 2.5 19:51:46 10° WNW 19:54:03 42° SSW 19:57:33 11° SE
Cosmos 2219 Rocket 2.4 19:48:24 10° NNW 19:54:06 76° WSW 19:59:45 10° SSE
Meteor 2-19 Rocket 4.4 19:50:17 10° N 19:56:28 77° E 20:02:38 10° SSE
OBJECT-B 0.9 19:54:06 10° SSE 19:57:14 53° ENE 20:00:24 10° N
Cosmos 1076 Rocket 4.3 19:54:22 10° N 19:58:21 34° ENE 20:01:45 13° SE
COSMOS 2428 2.8 19:52:36 10° NNW 19:58:22 84° WSW 20:04:06 10° SSE
ATLAS 5 CENTAUR R/B 0.6 19:57:06 10° NNW 19:58:57 66° NE 20:01:00 15° SE
Meteor 2-1 Rocket 4.3 19:53:21 10° S 19:59:09 73° E 20:05:04 10° NNE
Cosmos 1627 Rocket 4.5 19:52:59 10° N 19:59:10 78° E 20:05:22 10° S
Cosmos 1634 Rocket 4.0 19:54:56 10° S 20:01:12 82° E 20:07:28 10° N
Cosmos 2344 3.7 19:55:16 10° SW 20:02:51 79° NW 20:10:38 10° NE
Cosmos 407 Rocket 3.8 19:59:53 10° S 20:04:40 42° ESE 20:09:31 10° NNE
SL-8 R/B 3.8 20:00:28 10° WNW 20:05:18 73° SSW 20:09:04 16° SE
Cosmos 1356 3.7 20:02:54 10° N 20:06:13 45° ENE 20:08:39 16° SSE
Cosmos 1408 3.8 20:04:45 10° NNW 20:08:08 42° W 20:11:30 10° SSW
RESURS DK-1 4.5 20:08:18 10° WSW 20:11:59 31° WNW 20:15:43 10° N
Cosmos 2058 Rocket 4.1 20:08:24 10° SSW 20:12:36 47° WNW 20:16:49 10° N
Cosmos 1140 Rocket 3.6 20:13:00 10° S 20:17:54 48° ESE 20:22:50 10° NNE
Cosmos 405 Rocket 2.7 20:14:28 10° N 20:18:27 73° E 20:21:34 15° SSE
NOSS 0 Rocket 3.9 20:13:07 10° NNW 20:19:22 82° ENE 20:24:39 15° SSE
Cosmos 1812 Rocket 3.7 20:15:47 10° S 20:20:06 54° E 20:24:28 10° NNE
Hubble Space Telescope 2.8 20:22:16 10° SSW 20:24:15 13° S 20:24:30 13° S
Timation 2 Rocket 4.1 20:18:13 10° S 20:24:37 53° ESE 20:30:47 10° NE
Cosmos 2237 Rocket 2.3 20:21:37 10° NNW 20:27:12 62° ENE 20:30:47 22° SE
IRIDIUM 103 4.3 20:22:22 10° S 20:27:30 63° E 20:32:39 10° N
Cosmos 2180 Rocket 4.4 20:21:34 10° S 20:27:36 63° E 20:33:40 10° NNE
Cosmos 1825 3.5 20:27:12 10° NNW 20:30:46 40° W 20:34:18 10° SSW
Cosmos 192 4.3 20:26:45 10° NNW 20:31:45 82° ENE 20:35:02 21° SSE
BREEZE M DEB (TANK) 3.8 20:21:17 10° WSW 20:32:42 60° NNW 20:36:06 10° NE
FALCON 9 DEB 3.3 20:35:40 10° WSW 20:38:41 59° NW 20:41:38 11° NE
Cosmos 2227 Rocket 2.1 20:33:50 10° S 20:39:25 67° ESE 20:45:03 10° NNE
Cosmos 2082 4.3 20:37:14 23° SSE 20:39:44 34° ESE 20:44:43 10° NE
Cosmos 2058 4.4 20:37:58 10° NNW 20:41:48 36° W 20:45:36 10° SSW
Cosmos 1633 2.5 20:38:58 10° N 20:42:31 59° E 20:43:20 45° SE
FALCON 9 DEB 4.0 20:40:27 10° WSW 20:43:21 43° NNW 20:46:17 10° NE
IRIDIUM 106 4.3 20:40:33 10° S 20:45:45 88° W 20:51:01 10° N
Cosmos 2297 Rocket 2.2 20:40:25 10° SSW 20:46:04 85° WNW 20:51:46 10° NNE
Cosmos 1655 Rocket 4.0 20:41:02 10° N 20:47:16 65° E 20:50:54 26° SSE
Cosmos 1869 4.4 20:47:58 27° ENE 20:47:58 27° ENE 20:50:43 10° NNE
Cosmos 1809 Rocket 4.4 20:41:29 10° N 20:47:37 87° E 20:52:15 18° S
Resurs 01 Rocket 1.6 20:46:10 33° SSE 20:48:06 71° ENE 20:52:33 10° N
Meteor 1-4 Rocket 4.3 20:50:30 18° NE 20:50:30 18° NE 20:51:52 10° NE
Resurs 1-3 3.9 20:46:38 19° S 20:49:43 64° WSW 20:54:06 10° NNW
Genesis I 3.5 20:47:46 10° NNW 20:51:44 55° NE 20:52:33 45° E
Cosmos 2219 3.3 20:49:44 10° SSW 20:55:20 79° WNW 21:01:00 10° NNE
Cosmos 389 Rocket 4.3 20:52:18 10° SW 20:55:30 32° WNW 20:58:44 10° N
Cosmos 2084 Rocket 3.7 20:54:43 10° SW 20:58:38 61° NW 21:02:38 10° NNE
Meteor 2-14 Rocket 4.4 20:55:32 10° N 21:01:37 88° W 21:05:19 25° S
Cosmos 1190 Rocket 4.1 20:57:05 10° SSW 21:02:19 77° WNW 21:07:34 10° NNE
Ariane Rocket 3.9 20:58:34 13° S 21:02:52 44° W 21:07:42 10° NNW
Terra 3.5 21:03:52 18° ENE 21:03:55 18° ENE 21:07:05 10° NNE
BREEZE-M DEB (TANK) 3.2 21:07:08 10° NW 21:08:46 31° N 21:08:46 31° N
SPOT 5 3.8 21:14:08 29° ENE 21:14:08 29° ENE 21:18:12 10° N
Cosmos-2242 3.3 21:12:34 29° SSW 21:14:40 67° W 21:18:58 10° N
SPOT 1/Viking Rocket 3.5 21:14:16 50° SE 21:15:32 69° ENE 21:20:45 10° N
Cosmos 2151 3.6 21:15:14 10° NNW 21:19:25 53° W 21:20:45 37° SSW
Cosmos 676 Rocket 3.9 21:17:21 22° SSW 21:20:44 88° WNW 21:25:58 10° NNE
ATLAS 3B R/B 4.2 21:15:10 10° NW 21:21:15 31° WSW 21:26:27 14° SSW
SPOT 3 Rocket 4.0 21:21:18 33° SSW 21:23:31 58° W 21:28:38 10° NNW
SL-16 R/B 2.2 21:18:39 10° NNW 21:24:18 63° ENE 21:25:19 54° ESE
USA 215 3.8 21:21:35 29° E 21:24:35 48° NNE 21:30:48 10° NW
SL-4 R/B 3.4 21:23:52 10° W 21:28:04 42° NNW 21:32:32 10° NE
COSMOS 2455 2.8 21:24:55 10° SSW 21:30:56 84° WNW 21:37:00 10° NNE
IGS 5A 4.3 21:30:47 38° SW 21:31:34 43° W 21:35:33 10° NNW
ERS-1 Rocket 3.3 21:33:53 50° ENE 21:33:53 50° ENE 21:38:39 10° N
Landsat 7 4.4 21:34:05 41° SW 21:35:17 51° W 21:39:56 10° NNW
Cosmos 2221 4.0 21:41:54 27° NE 21:41:54 27° NE 21:44:06 10° NNE
ARIANE 5 R/B 2.7 21:41:36 75° N 21:41:36 75° N 21:45:38 10° NNW
USA 245 4.4 21:43:09 37° NW 21:43:09 37° NW 21:45:12 10° NNW
Meteor 2-15 Rocket 4.4 21:43:55 59° E 21:44:03 59° E 21:50:01 10° NNE
Cosmos 44 Rocket 4.2 21:52:18 10° SW 21:57:14 51° NW 22:02:19 10° NNE
Cosmos 1741 Rocket 4.4 22:05:12 57° NNE 22:05:12 57° NNE 22:09:24 10° NNE
BREEZE-M DEB (TANK) 4.0 21:59:00 10° WNW 22:06:19 47° N 22:06:19 47° N
Cosmos 1850 Rocket 4.3 22:08:07 59° NNE 22:08:07 59° NNE 22:12:22 10° NNE
Nadezhda 2 Rocket 4.3 22:01:06 10° N 22:07:21 87° W 22:07:42 80° SSW
Cosmos 2237 Rocket 4.2 22:07:01 10° WNW 22:10:40 18° W 22:12:38 15° SW
Spot 2 Rocket 4.2 22:12:18 45° W 22:12:20 45° W 22:17:12 10° NNW
Cosmos 2263 Rocket 3.1 22:16:16 38° NE 22:16:16 38° NE 22:19:44 10° NNE
Aureole 1 Rocket 4.1 22:17:34 51° NNE 22:17:34 51° NNE 22:21:02 10° NNE
SL-08 R/B 4.4 22:16:31 10° N 22:22:24 79° NE 22:22:24 79° NE
Resurs 01 Rocket 4.4 22:24:09 10° W 22:25:04 11° W 22:25:59 10° WNW
Lacrosse 5 rocket 3.6 22:22:40 10° NNW 22:25:34 21° NNE 22:25:34 21° NNE
USA 229 DEB 4.1 22:18:52 10° NNW 22:26:08 60° NE 22:27:01 57° E
USA 229 4.1 22:18:58 10° NNW 22:26:14 59° NE 22:27:08 56° E
Cosmos 1553 Rocket 4.0 22:33:03 74° NW 22:33:03 74° NW 22:38:49 10° N
Cosmos 841 Rocket 4.3 22:32:37 10° NNW 22:36:20 47° N 22:36:20 47° N
Cosmos 1603 4.3 22:33:19 10° NNW 22:37:52 53° NNE 22:37:52 53° NNE
Terra 3.1 22:42:45 37° NW 22:42:45 37° NW 22:45:54 10° NNW
NOSS 3-1 (A) 4.1 22:36:35 10° NNW 22:44:13 71° NE 22:45:03 67° E
USA 215 3.8 23:08:55 47° W 23:08:55 47° W 23:13:55 10° NW
SL-16 R/B 4.3 23:04:09 10° WNW 23:07:12 18° W 23:07:12 18° W
NOSS 3-1 (C) 4.3 23:00:17 10° NW 23:07:47 62° WSW 23:07:47 62° WSW
SeaSat 1 4.2 23:28:33 10° NNE 23:31:05 29° N 23:31:05 29° N
